EW9081 Weather Reports


time (UTC)temp
C
wind
direction
speed
KPH
gust
KPH
rain 1hr
cm
rain 24hr
cm
rain mn
cm
humidity
%
barometer
mb
20260503000544 21 269 1.6 4.8 0.00 0.00 0.00 65 1011.3
20260503000050 21 306 1.6 6.4 0.00 0.00 0.00 61 1011.4
20260503000045 20 275 3.2 6.4 0.00 0.00 0.00 61 1011.4
20260502235545 20 275 3.2 6.4 0.00 0.00 0.00 60 1011.4
20260502235159 20 21 1.6 6.4 0.00 0.00 0.00 62 1011.5
20260502234044 20 304 1.6 4.8 0.00 0.00 0.00 59 1011.6
20260502233544 20 340 1.6 4.8 0.00 0.00 0.00 62 1011.7
20260502233050 20 323 1.6 6.4 0.00 0.00 0.00 63 1011.8
20260502233045 20 5 3.2 6.4 0.00 0.00 0.00 62 1011.7
20260502232044 20 327 1.6 3.2 0.00 0.00 0.00 64 1011.9
20260502231543 19 190 1.6 4.8 0.00 0.00 0.00 65 1012.0
20260502231042 20 190 1.6 4.8 0.00 0.00 0.00 61 1012.1
20260502230547 20 347 3.2 8.0 0.00 0.00 0.00 61 1012.2
20260502230543 20 265 1.6 4.8 0.00 0.00 0.00 62 1012.1
20260502225542 20 350 1.6 8.0 0.00 0.00 0.00 60 1012.2
20260502225042 20 168 1.6 6.4 0.00 0.00 0.00 62 1012.4
20260502224543 20 165 1.6 6.4 0.00 0.00 0.00 63 1012.5
20260502224042 20 228 1.6 4.8 0.00 0.00 0.00 62 1012.5
20260502223542 20 253 1.6 4.8 0.00 0.00 0.00 65 1012.6
20260502223042 20 58 1.6 4.8 0.00 0.00 0.00 61 1012.8
20260502222540 19 41 1.6 4.8 0.00 0.00 0.00 62 1012.8
20260502222040 19 355 3.2 8.0 0.00 0.00 0.00 61 1012.9
20260502221540 19 12 1.6 8.0 0.00 0.00 0.00 64 1012.9
20260502221040 19 286 1.6 4.8 0.00 0.00 0.00 66 1012.9
20260502220540 18 164 1.6 4.8 0.00 0.00 0.00 64 1013.1
20260502220039 18 172 1.6 4.8 0.00 0.00 0.00 66 1013.2
20260502215540 18 296 1.6 4.8 0.00 0.00 0.00 66 1013.2
20260502215041 18 174 1.6 4.8 0.00 0.00 0.00 67 1013.3
20260502214540 18 171 1.6 4.8 0.00 0.00 0.00 65 1013.3
20260502214040 17 263 3.2 4.8 0.00 0.00 0.00 65 1013.3
20260502213537 17 355 3.2 6.4 0.00 0.00 0.00 66 1013.3
20260502213039 17 222 1.6 8.0 0.00 0.00 0.00 70 1013.5
20260502212537 17 156 1.6 8.0 0.00 0.00 0.00 66 1013.5
20260502212036 17 152 1.6 6.4 0.00 0.00 0.00 67 1013.6
20260502211536 17 159 1.6 6.4 0.00 0.00 0.00 69 1013.7
20260502211038 16 174 1.6 8.0 0.00 0.00 0.00 69 1013.8
20260502211034 17 189 1.6 8.0 0.00 0.00 0.00 74 1013.7
20260502210648 16 169 1.6 6.4 0.00 0.00 0.00 70 1013.9
20260502205540 16 173 1.6 6.4 0.00 0.00 0.00 69 1013.9
20260502205534 16 168 3.2 6.4 0.00 0.00 0.00 71 1013.9
20260502205032 16 146 1.6 6.4 0.00 0.00 0.00 71 1013.9
20260502204645 16 76 1.6 6.4 0.00 0.00 0.00 70 1014.0
20260502203532 15 346 1.6 8.0 0.00 0.00 0.00 70 1014.1
20260502203032 15 355 3.2 8.0 0.00 0.00 0.00 70 1014.1
20260502202539 15 298 3.2 8.0 0.00 0.00 0.00 72 1014.5
20260502202532 16 83 3.2 8.0 0.00 0.00 0.00 69 1014.2
20260502202032 16 250 3.2 11.3 0.00 0.00 0.00 68 1014.3
20260502201532 16 284 3.2 11.3 0.00 0.00 0.00 70 1014.5
20260502200537 15 280 1.6 4.8 0.00 0.00 0.00 74 1014.8
20260502200532 15 284 3.2 8.0 0.00 0.00 0.00 74 1014.6
20260502195530 15 355 3.2 6.4 0.00 0.00 0.00 74 1014.9
20260502195034 14 5 3.2 6.4 0.00 0.00 0.00 75 1015.0
20260502195028 14 22 3.2 6.4 0.00 0.00 0.00 73 1015.2
20260502194027 14 0 3.2 8.0 0.00 0.00 0.00 75 1015.2
20260502193528 14 19 3.2 11.3 0.00 0.00 0.00 74 1015.3
20260502193027 14 0 1.6 11.3 0.00 0.00 0.00 72 1015.3
20260502192534 13 237 1.6 4.8 0.00 0.00 0.00 74 1015.3
20260502192029 13 292 1.6 6.4 0.00 0.00 0.00 76 1015.5
20260502191526 13 196 3.2 6.4 0.00 0.00 0.00 75 1015.4
20260502191027 13 246 1.6 6.4 0.00 0.00 0.00 77 1015.7
20260502190526 13 317 1.6 4.8 0.00 0.00 0.00 78 1015.6
20260502190025 12 96 1.6 3.2 0.00 0.00 0.00 78 1015.6
20260502185527 12 182 1.6 3.2 0.00 0.00 0.00 77 1015.7
20260502185025 12 182 1.6 4.8 0.00 0.00 0.00 77 1015.6
20260502184526 12 201 1.6 6.4 0.00 0.00 0.00 78 1015.6
20260502184027 12 201 3.2 6.4 0.00 0.00 0.00 77 1015.6
20260502183526 12 207 1.6 4.8 0.00 0.00 0.00 78 1015.5
20260502183027 12 182 1.6 3.2 0.00 0.00 0.00 78 1015.5
20260502182526 12 175 1.6 3.2 0.00 0.00 0.00 80 1015.5
20260502182030 12 167 1.6 6.4 0.00 0.00 0.00 79 1015.6
20260502182025 12 175 1.6 6.4 0.00 0.00 0.00 80 1015.6
20260502181033 12 164 1.6 6.4 0.00 0.00 0.00 79 1015.7
20260502181026 12 157 1.6 6.4 0.00 0.00 0.00 79 1015.6
20260502180525 12 152 1.6 6.4 0.00 0.00 0.00 80 1015.7
20260502163524 11 246 1.6 3.2 0.00 0.00 0.00 78 1016.1
20260502163020 11 284 1.6 6.4 0.00 0.00 0.00 78 1016.1
20260502162520 11 321 1.6 6.4 0.00 0.00 0.00 78 1016.1
20260502162021 11 252 1.6 4.8 0.00 0.00 0.00 84 1016.1
20260502161633 11 267 3.2 8.0 0.00 0.00 0.00 83 1016.3
20260502161525 11 270 3.2 6.4 0.00 0.00 0.00 83 1016.3
20260502161521 11 242 3.2 6.4 0.00 0.00 0.00 81 1016.2
20260502152017 9 299 3.2 6.4 0.00 0.00 0.00 86 1016.3
20260502151515 9 263 1.6 6.4 0.00 0.00 0.00 86 1016.2
20260502151023 8 271 1.6 6.4 0.00 0.00 0.00 87 1016.2
20260502151015 9 250 1.6 6.4 0.00 0.00 0.00 86 1016.2
20260502150515 9 296 1.6 6.4 0.00 0.00 0.00 87 1016.2
20260502130511 8 221 1.6 8.0 0.00 0.00 0.00 88 1016.6
20260502123509 8 225 1.6 4.8 0.00 0.00 0.00 88 1016.4
20260502123122 8 218 0.0 8.0 0.00 0.00 0.00 87 1016.3
20260502122622 8 217 1.6 8.0 0.00 0.00 0.00 87 1016.3
20260502122009 8 219 1.6 8.0 0.00 0.00 0.00 87 1016.2
20260502121623 8 236 1.6 9.7 0.00 0.00 0.00 87 1016.2
20260502120510 8 291 1.6 9.7 0.00 0.00 0.00 87 1016.2
20260502115514 8 216 1.6 9.7 0.00 0.00 0.00 87 1016.2
20260502115510 8 250 3.2 8.0 0.00 0.00 0.00 87 1016.4
20260502114507 8 202 3.2 9.7 0.00 0.00 0.00 87 1016.2
20260502114007 8 231 3.2 8.0 0.00 0.00 0.00 87 1016.3
20260502113507 8 240 3.2 12.9 0.00 0.00 0.00 87 1016.3
20260502113010 8 256 3.2 11.3 0.00 0.00 0.00 87 1016.3
20260502113006 8 220 3.2 12.9 0.00 0.00 0.00 87 1016.2
20260502112007 8 231 1.6 11.3 0.00 0.00 0.00 87 1016.2
20260502111506 8 258 1.6 9.7 0.00 0.00 0.00 88 1016.2
20260502111007 8 253 3.2 11.3 0.00 0.00 0.00 87 1016.2
20260502110507 8 235 3.2 11.3 0.00 0.00 0.00 87 1016.1
20260502110019 8 238 3.2 11.3 0.00 0.00 0.00 87 1016.0
20260502110008 8 258 3.2 11.3 0.00 0.00 0.00 87 1016.0
20260502105007 8 267 3.2 9.7 0.00 0.00 0.00 87 1015.9
20260502104522 8 259 3.2 9.7 0.00 0.00 0.00 87 1015.8
20260502104007 8 226 3.2 9.7 0.00 0.00 0.00 87 1016.1
20260502103508 8 243 3.2 14.5 0.00 0.00 0.00 87 1016.0
20260502103007 8 221 3.2 14.5 0.00 0.00 0.00 87 1016.0
20260502102512 8 254 4.8 12.9 0.00 0.00 0.00 87 1016.1
20260502102507 8 261 4.8 12.9 0.00 0.00 0.00 87 1016.0
20260502101506 9 291 3.2 12.9 0.00 0.00 0.00 87 1016.0
20260502101006 9 259 4.8 12.9 0.00 0.00 0.00 87 1016.1
20260502100508 9 298 3.2 12.9 0.00 0.00 0.00 86 1016.0
20260502091503 9 264 3.2 11.3 0.00 0.00 0.00 86 1016.7
20260502091004 9 252 3.2 14.5 0.00 0.00 0.00 86 1016.8
20260502090502 9 238 3.2 14.5 0.00 0.00 0.00 86 1016.9
20260502071001 10 231 3.2 11.3 0.00 0.00 0.00 85 1017.2
20260502070502 10 250 4.8 14.5 0.00 0.00 0.00 84 1017.3
20260502070000 10 317 4.8 14.5 0.00 0.00 0.00 84 1017.2
20260502065459 10 253 4.8 12.9 0.00 0.00 0.00 84 1017.3
20260502064959 10 264 4.8 12.9 0.00 0.00 0.00 84 1017.3
20260502064459 10 217 4.8 16.1 0.00 0.00 0.00 84 1017.3
20260502063958 10 304 4.8 16.1 0.00 0.00 0.00 85 1017.3
20260502063457 10 253 4.8 14.5 0.00 0.00 0.00 85 1017.3
20260502062958 10 265 4.8 12.9 0.00 0.00 0.00 85 1017.4
20260502062456 10 229 4.8 16.1 0.00 0.00 0.00 85 1017.3
20260502061958 10 284 6.4 16.1 0.00 0.00 0.00 84 1017.3
20260502061458 10 243 8.0 20.9 0.00 0.00 0.00 84 1017.4
20260502060956 10 223 6.4 20.9 0.00 0.00 0.00 85 1017.3
20260502060456 10 252 4.8 12.9 0.00 0.00 0.00 85 1017.3
20260502055955 10 232 4.8 14.5 0.00 0.00 0.00 84 1017.2
20260502055456 10 277 4.8 14.5 0.00 0.00 0.00 84 1017.1
20260502054955 10 242 6.4 16.1 0.00 0.00 0.00 84 1017.1
20260502054454 10 302 6.4 17.7 0.00 0.00 0.00 84 1017.1
20260502053958 10 286 4.8 16.1 0.00 0.00 0.00 84 1017.2
20260502053954 10 235 4.8 17.7 0.00 0.00 0.00 84 1017.1
20260502052956 10 257 4.8 19.3 0.00 0.00 0.00 85 1017.1
20260502052952 10 205 6.4 19.3 0.00 0.00 0.00 84 1017.2
20260502051957 10 217 6.4 20.9 0.00 0.00 0.00 85 1017.1
20260502051951 10 238 4.8 17.7 0.00 0.00 0.00 85 1017.1
20260502051450 10 288 6.4 20.9 0.00 0.00 0.00 85 1017.2
20260502050451 10 251 6.4 14.5 0.00 0.00 0.00 85 1017.0
20260502045955 10 335 4.8 14.5 0.00 0.00 0.00 85 1017.0
20260502045949 10 290 6.4 14.5 0.00 0.00 0.00 84 1017.0
20260502044948 10 228 6.4 19.3 0.00 0.00 0.00 84 1016.9
20260502044449 10 250 6.4 20.9 0.00 0.00 0.00 84 1016.9
20260502043948 10 303 8.0 20.9 0.00 0.00 0.00 84 1016.9
20260502043449 10 288 6.4 19.3 0.00 0.00 0.00 84 1016.8
20260502042949 10 232 6.4 19.3 0.00 0.00 0.00 84 1016.8
20260502042446 10 246 6.4 16.1 0.00 0.00 0.00 84 1016.8
20260502041947 10 193 6.4 19.3 0.00 0.00 0.00 84 1016.8
20260502041448 10 270 6.4 19.3 0.00 0.00 0.00 84 1016.7
20260502040946 10 252 6.4 16.1 0.00 0.00 0.00 84 1016.6
20260502040452 10 246 8.0 22.5 0.00 0.00 0.00 84 1016.4
20260502040448 10 232 8.0 22.5 0.00 0.00 0.00 84 1016.7
20260502035447 11 238 8.0 22.5 0.00 0.00 0.00 84 1016.4
20260502034946 11 270 6.4 22.5 0.00 0.00 0.00 83 1016.4
20260502034447 11 179 6.4 22.5 0.00 0.00 0.00 83 1016.3
20260502033948 11 236 6.4 22.5 0.00 0.00 0.00 83 1016.3
20260502033446 11 266 6.4 20.9 0.00 0.00 0.00 83 1016.3
20260502032946 11 257 6.4 32.2 0.00 0.00 0.00 83 1016.2
20260502032446 11 284 8.0 32.2 0.00 0.00 0.00 83 1016.3
20260502031946 11 254 8.0 22.5 0.00 0.00 0.00 83 1016.1
20260502031448 11 205 6.4 19.3 0.00 0.00 0.00 83 1016.1
20260502030946 11 269 4.8 19.3 0.00 0.00 0.00 83 1016.1
20260502030446 11 253 6.4 16.1 0.00 0.00 0.00 82 1016.0
20260502025947 11 209 6.4 22.5 0.00 0.00 0.00 82 1016.0
20260502025446 11 218 8.0 22.5 0.00 0.00 0.00 82 1015.9
20260502024953 11 194 6.4 17.7 0.00 0.00 0.00 81 1015.8
20260502024948 11 234 8.0 22.5 0.00 0.00 0.00 82 1015.8
20260502024447 11 278 8.0 22.5 0.00 0.00 0.00 81 1015.8
20260502024100 11 232 6.4 19.3 0.00 0.00 0.00 81 1015.7
20260502022945 12 199 8.0 20.9 0.00 0.00 0.00 80 1015.7
20260502022447 12 253 8.0 22.5 0.00 0.00 0.00 80 1015.5
20260502021944 12 245 8.0 22.5 0.00 0.00 0.00 80 1015.6
20260502021449 12 247 8.0 20.9 0.00 0.00 0.00 79 1015.5
20260502021444 12 227 8.0 20.9 0.00 0.00 0.00 79 1015.6
20260502021058 12 214 8.0 20.9 0.00 0.00 0.00 78 1015.5
20260502015945 12 277 8.0 20.9 0.00 0.00 0.00 78 1015.6
20260502015445 12 281 6.4 19.3 0.00 0.00 0.00 78 1015.7
20260502014944 13 244 6.4 19.3 0.00 0.00 0.00 77 1015.6
20260502014442 13 233 8.0 30.6 0.00 0.00 0.00 77 1015.6
20260502013940 13 281 8.0 30.6 0.00 0.00 0.00 76 1015.5
20260502013440 13 257 8.0 30.6 0.00 0.00 0.00 75 1015.5
20260502012941 13 243 9.7 30.6 0.00 0.00 0.00 75 1015.4
20260502012441 13 277 11.3 32.2 0.00 0.00 0.00 75 1015.5
20260502011941 13 213 11.3 32.2 0.00 0.00 0.00 73 1015.5
20260502011441 14 239 9.7 25.7 0.00 0.00 0.00 73 1015.4
20260502010940 14 235 9.7 25.7 0.00 0.00 0.00 72 1015.5
20260502010440 14 198 8.0 27.4 0.00 0.00 0.00 73 1015.4
20260502005940 14 288 8.0 27.4 0.00 0.00 0.00 73 1015.4
20260502005441 14 234 11.3 27.4 0.00 0.00 0.00 73 1015.4
20260502004940 14 231 12.9 27.4 0.00 0.00 0.00 72 1015.4
20260502004446 15 212 9.7 25.7 0.00 0.00 0.00 71 1015.3
20260502004441 15 215 11.3 25.7 0.00 0.00 0.00 72 1015.4
20260502003439 15 216 9.7 25.7 0.00 0.00 0.00 71 1015.3
20260502002940 15 215 11.3 25.7 0.00 0.00 0.00 70 1015.3
20260502002445 15 238 6.4 19.3 0.00 0.00 0.00 71 1015.3
20260502002439 15 194 8.0 24.1 0.00 0.00 0.00 70 1015.3
20260502001938 15 278 6.4 19.3 0.00 0.00 0.00 71 1015.3